Change the Weather History Date:

Friday, September 20, 2013

  Actual Average Record
Temperature  
Mean Temperature 68 °F -  
Max Temperature 72 °F 70 °F 82 °F (1978)
Min Temperature 63 °F 48 °F 31 °F (1979)
Cooling Degree Days 2    
Growing Degree Days 18 (Base 50)    
Moisture  
Dew Point 65 °F    
Average Humidity 85    
Maximum Humidity 91    
Minimum Humidity 76    
Precipitation  
Precipitation 0.06 in - - ()
Sea Level Pressure  
Sea Level Pressure 29.74 in    
Wind  
Wind Speed 8 mph (SW)    
Max Wind Speed 15 mph    
Max Gust Speed 28 mph    
Visibility 8 miles    
Events Rain    
Averages and records for this station are not official NWS values.
T = Trace of Precipitation, MM = Missing Value Source: NWS Daily Summary

Daily Weather History Graph

Daily Weather History Graph

Search for Another Location

Airport or City:

Trip Planner

Search our weather history database for the weather conditions in past years. The results will help you decide how hot, cold, wet, or windy it might be!

Date:

Astronomy

Sep. 20, 2013 Rise Set
Actual Time 7:30 AM EDT 7:46 PM EDT
Civil Twilight 7:01 AM EDT 8:15 PM EDT
Nautical Twilight 6:28 AM EDT 8:48 PM EDT
Astronomical Twilight 5:53 AM EDT 9:23 PM EDT
Moon 8:14 PM EDT (9/20) 8:49 AM EDT (9/20)
Length of Visible Light 13h 13m
Length of Day
12h 15m
Full, 98% of the Moon is Illuminated
Sep 20
Full
Sep 26
Last Quarter
Oct 4
New
Oct 11
First Quarter
Oct 18
Full

Hourly Weather History & Observations

Time (EDT) Temp. Dew Point Humidity Pressure Visibility Wind Dir Wind Speed Gust Speed Precip Events Conditions
12:15 AM 71.1 °F 65.8 °F 84% 29.78 in 10.0 mi South 5.8 mph - N/A   Mostly Cloudy
12:35 AM 71.1 °F 64.8 °F 80% 29.78 in 10.0 mi SSW 8.1 mph - N/A   Mostly Cloudy
12:55 AM 71.1 °F 64.9 °F 81% 29.77 in 10.0 mi Calm Calm - N/A   Mostly Cloudy
1:15 AM 72.0 °F 65.1 °F 79% 29.78 in 10.0 mi South 6.9 mph - N/A   Overcast
1:35 AM 71.1 °F 66.0 °F 84% 29.81 in 7.0 mi WSW 10.4 mph 27.6 mph N/A Rain Light Rain
1:55 AM 71.1 °F 67.5 °F 88% 29.77 in 10.0 mi SSW 3.5 mph - 0.05 in Rain Light Rain
2:15 AM 69.8 °F 66.2 °F 88% 29.75 in 7.0 mi SE 6.9 mph - N/A Rain Light Rain
2:35 AM 68.5 °F 65.3 °F 89% 29.76 in 10.0 mi SSE 5.8 mph - N/A   Clear
2:55 AM 68.5 °F 65.3 °F 89% 29.74 in 7.0 mi SE 4.6 mph - N/A   Scattered Clouds
3:15 AM 71.1 °F 68.0 °F 90% 29.74 in 7.0 mi South 8.1 mph - N/A   Scattered Clouds
3:35 AM 71.1 °F 67.5 °F 88% 29.74 in 5.0 mi SSW 10.4 mph 16.1 mph N/A   Scattered Clouds
3:55 AM 71.1 °F 67.3 °F 88% 29.75 in 5.0 mi SSW 12.7 mph 21.9 mph N/A   Scattered Clouds
4:15 AM 71.1 °F 67.3 °F 88% 29.73 in 5.0 mi SSW 15.0 mph 20.7 mph N/A   Scattered Clouds
4:35 AM 71.1 °F 67.5 °F 88% 29.72 in 4.0 mi SW 10.4 mph 18.4 mph N/A   Clear
4:55 AM 71.1 °F 67.5 °F 88% 29.72 in 4.0 mi SSW 11.5 mph - N/A   Clear
5:15 AM 71.1 °F 67.5 °F 88% 29.72 in 5.0 mi SSW 10.4 mph - N/A   Clear
5:35 AM 71.1 °F 67.5 °F 88% 29.72 in 5.0 mi SW 10.4 mph - N/A   Mostly Cloudy
5:55 AM 71.1 °F 67.6 °F 89% 29.71 in 5.0 mi SSW 6.9 mph - N/A   Overcast
6:14 AM 71.1 °F 68.0 °F 90% 29.73 in 4.0 mi SSW 9.2 mph - N/A   Overcast
6:35 AM 71.1 °F 67.6 °F 89% 29.73 in 5.0 mi SSW 9.2 mph - N/A   Overcast
6:55 AM 68.7 °F 65.5 °F 89% 29.74 in 7.0 mi SW 10.4 mph - N/A   Overcast
7:14 AM 68.5 °F 65.5 °F 90% 29.74 in 7.0 mi SW 11.5 mph - N/A   Overcast
7:35 AM 68.5 °F 65.5 °F 90% 29.74 in 7.0 mi SSW 11.5 mph - N/A   Overcast
7:55 AM 68.7 °F 65.3 °F 89% 29.74 in 10.0 mi SSW 10.4 mph 16.1 mph N/A   Overcast
8:15 AM 71.1 °F 67.5 °F 88% 29.75 in 10.0 mi SW 15.0 mph 20.7 mph N/A   Overcast
8:35 AM 68.5 °F 65.3 °F 89% 29.75 in 10.0 mi SW 11.5 mph - N/A   Overcast
8:55 AM 68.5 °F 65.3 °F 89% 29.75 in 10.0 mi SW 11.5 mph - N/A   Overcast
9:15 AM 68.5 °F 65.3 °F 89% 29.75 in 10.0 mi SW 11.5 mph - N/A   Overcast
9:35 AM 68.5 °F 65.3 °F 89% 29.75 in 10.0 mi SW 11.5 mph - N/A   Overcast
9:55 AM 68.9 °F 65.5 °F 89% 29.75 in 10.0 mi SW 11.5 mph - N/A   Overcast
10:15 AM 68.7 °F 65.5 °F 89% 29.76 in 10.0 mi SSW 12.7 mph - N/A   Overcast
10:35 AM 68.5 °F 65.3 °F 89% 29.76 in 10.0 mi SW 10.4 mph - N/A   Overcast
10:55 AM 68.5 °F 65.3 °F 89% 29.76 in 10.0 mi SW 11.5 mph 17.3 mph N/A   Overcast
11:15 AM 68.5 °F 65.3 °F 89% 29.76 in 5.0 mi SW 10.4 mph - N/A   Overcast
11:35 AM 68.5 °F 65.5 °F 90% 29.76 in 3.0 mi SW 9.2 mph - N/A Rain Rain
11:55 AM 68.5 °F 65.7 °F 90% 29.76 in 3.0 mi SW 8.1 mph - N/A Rain Heavy Rain
12:15 PM 68.5 °F 65.7 °F 90% 29.75 in 3.0 mi SW 8.1 mph - N/A Rain Rain
12:35 PM 68.5 °F 65.7 °F 90% 29.75 in 5.0 mi WSW 9.2 mph - 0.01 in   Overcast
12:55 PM 68.5 °F 65.7 °F 90% 29.74 in 3.0 mi WSW 9.2 mph - 0.01 in Rain Rain
1:15 PM 70.3 °F 67.5 °F 91% 29.74 in 3.0 mi SW 8.1 mph - N/A   Light Drizzle
1:35 PM 71.1 °F 68.0 °F 90% 29.74 in 4.0 mi WSW 9.2 mph 16.1 mph N/A   Overcast
1:54 PM 71.1 °F 67.8 °F 89% 29.73 in 5.0 mi SW 9.2 mph - N/A   Overcast
2:15 PM 71.1 °F 67.5 °F 88% 29.73 in 5.0 mi WSW 8.1 mph - N/A   Overcast
2:35 PM 71.1 °F 67.3 °F 88% 29.73 in 5.0 mi SW 9.2 mph - N/A   Overcast
2:54 PM 71.1 °F 67.3 °F 88% 29.73 in 5.0 mi WSW 9.2 mph - N/A   Overcast
3:15 PM 71.1 °F 66.9 °F 87% 29.73 in 7.0 mi WSW 10.4 mph - N/A   Mostly Cloudy
3:34 PM 71.1 °F 66.6 °F 86% 29.73 in 10.0 mi WSW 11.5 mph - N/A   Mostly Cloudy
3:55 PM 71.1 °F 66.6 °F 86% 29.73 in 10.0 mi WSW 8.1 mph - N/A   Overcast
4:15 PM 71.1 °F 66.6 °F 86% 29.74 in 10.0 mi WSW 8.1 mph - N/A   Overcast
4:34 PM 71.1 °F 66.4 °F 85% 29.74 in 10.0 mi WSW 8.1 mph - N/A   Overcast
4:55 PM 71.1 °F 65.8 °F 84% 29.73 in 10.0 mi WSW 8.1 mph - N/A   Scattered Clouds
5:15 PM 71.1 °F 65.8 °F 84% 29.73 in 10.0 mi WSW 8.1 mph - N/A   Clear
5:35 PM 71.1 °F 64.6 °F 80% 29.74 in 10.0 mi WSW 5.8 mph - N/A   Clear
5:55 PM 71.1 °F 65.3 °F 82% 29.74 in 10.0 mi West 4.6 mph - N/A   Clear
6:15 PM 68.7 °F 63.5 °F 83% 29.74 in 10.0 mi WSW 4.6 mph - N/A   Mostly Cloudy
6:35 PM 68.5 °F 63.5 °F 84% 29.74 in 10.0 mi WSW 5.8 mph - N/A   Mostly Cloudy
6:55 PM 68.5 °F 64.2 °F 86% 29.74 in 10.0 mi WSW 4.6 mph - N/A   Mostly Cloudy
7:14 PM 68.5 °F 63.9 °F 85% 29.74 in 10.0 mi West 5.8 mph - N/A   Overcast
7:35 PM 68.5 °F 61.7 °F 79% 29.74 in 10.0 mi West 4.6 mph - N/A   Overcast
7:55 PM 67.5 °F 60.8 °F 79% 29.74 in 10.0 mi WNW 4.6 mph - N/A   Overcast
8:15 PM 66.2 °F 59.0 °F 78% 29.74 in 10.0 mi West 6.9 mph - N/A   Overcast
8:35 PM 66.2 °F 59.0 °F 78% 29.74 in 10.0 mi West 4.6 mph - N/A   Overcast
8:55 PM 66.2 °F 59.0 °F 78% 29.75 in 10.0 mi West 3.5 mph - N/A   Overcast
9:15 PM 65.7 °F 57.9 °F 76% 29.75 in 10.0 mi Calm Calm - N/A   Overcast
9:35 PM 64.4 °F 57.4 °F 78% 29.75 in 10.0 mi WNW 3.5 mph - N/A   Mostly Cloudy
9:55 PM 64.4 °F 57.6 °F 78% 29.75 in 10.0 mi WNW 3.5 mph - N/A   Scattered Clouds
10:15 PM 63.9 °F 56.5 °F 77% 29.75 in 10.0 mi West 3.5 mph - N/A   Scattered Clouds
10:35 PM 63.9 °F 56.3 °F 76% 29.75 in 10.0 mi West 5.8 mph - N/A   Clear
10:55 PM 64.2 °F 56.5 °F 76% 29.75 in 10.0 mi West 8.1 mph - N/A   Scattered Clouds
11:15 PM 64.0 °F 56.5 °F 76% 29.74 in 10.0 mi WNW 6.9 mph - N/A   Mostly Cloudy
11:35 PM 63.5 °F 56.3 °F 77% 29.74 in 10.0 mi WNW 6.9 mph - N/A   Mostly Cloudy
11:55 PM 63.5 °F 56.3 °F 77% 29.74 in 10.0 mi WNW 10.4 mph - N/A   Scattered Clouds